Regional Weather Roundup
Issued by NWS

Home | Current Version | Previous Version | Text Only | Print | Product List | Glossary On
Versions: 1 2 3 4 5 6 7 8 9 10 11 12 13 14 15 16 17 18 19 20 21 22 23 24 25 26 27
000
ASUS45 KBOI 240610
RWRID

IDAHO REGIONAL WEATHER ROUNDUP
NATIONAL WEATHER SERVICE BOISE ID
1200 AM MDT FRI MAR 24 2017

NOTE: "FAIR" INDICATES FEW OR NO CLOUDS BELOW 12000 FEET
WITH NO SIGNIFICANT WEATHER AND/OR OBSTRUCTIONS TO VISIBILITY

IDZ012-014-240700-
SOUTHWEST IDAHO


CITY           SKY/WX    TMP DP  RH WIND       PRES   REMARKS
BOISE          CLEAR     44  26  49 SE9       30.04S
CALDWELL       CLEAR     42  30  62 SE8       30.05S
MOUNTAIN HOME  CLEAR     39  31  72 S8        30.07R WCI  33
$$

IDZ016-017-240700-
SOUTHCENTRAL IDAHO


CITY           SKY/WX    TMP DP  RH WIND       PRES   REMARKS
BURLEY         CLEAR     36  24  62 S6        30.08S WCI  31
JEROME         CLEAR     36  27  69 SE8       30.09R WCI  30
TWIN FALLS     CLEAR     37  27  67 S12       30.09R WCI  29
$$

IDZ019>023-240700-
SOUTHEAST IDAHO


CITY           SKY/WX    TMP DP  RH WIND       PRES   REMARKS
IDAHO FALLS    CLEAR     40  25  55 S18       30.06R WCI  31
POCATELLO      CLEAR     42  23  46 SW18G26   30.09R
REXBURG        CLEAR     39  28  64 S13       30.05R WCI  31
$$

IDZ006-010-011-018-031-032-240700-
CENTRAL IDAHO MOUNTAINS


CITY           SKY/WX    TMP DP  RH WIND       PRES   REMARKS
MCCALL         CLEAR     28  23  81 CALM      30.03S
HAILEY         CLEAR     34  28  80 NW7       30.08R WCI  28
STANLEY          N/A     25  18  74 CALM      30.08R
SALMON         CLEAR     36  21  55 CALM      30.02S
CHALLIS        CLEAR     33  21  61 CALM      30.04R
$$

IDZ002-004-006-007-026-240700-
NORTHERN IDAHO


CITY           SKY/WX    TMP DP  RH WIND       PRES   REMARKS
LEWISTON       PTCLDY    41  33  73 SE6       30.00F
LOWELL           N/A     36  33  89 NW6       30.10R WCI  31
COEUR D`ALENE  CLEAR     32  28  85 E7        30.02F WCI  26
MULLAN PASS    CLEAR     25  22  88 S9        29.98F WCI  15
$$




USA.gov is the U.S. government's official web portal to all federal, state and local government web resources and services.